Location: Chagrin Falls Park
(41.4139°N, 81.3865°W)
Time: 18:43:00
(UTC+00:00)

ATLAS 2AS CENTAUR R/B - Pass Details

Date: 29 October 2020
Orbit: 939 x 1273 km, 63.7° (Epoch: 23 November)

Event Time Altitude Azimuth Distance (km) Brightness Sun altitude
Rises 23:36:22 0° 326° (NNW) 4,166 6.2 -14.2°
Reaches altitude 10° 23:39:49 10° 339° (NNW) 3,154 5.4 -14.8°
Maximum altitude 23:45:58 26° 34° (NE) 2,085 3.9 -15.9°
Enters shadow 23:48:38 21° 66° (ENE) 2,277 3.9 -16.4°
